Vertical_Velocity
7 -16 35 7 -8 -28 3 -7 -14 11 4 4 -1 1 -4 -2 -3 0 2 3 1 -1
-3 -8 6 10 -14 -6 4 9 -0 1 -2 4 -3 -0 0 -1 -1 -2 0 -3 3 5
-2 0 0 -8 -6 1 9 9 4 2 2 -8 -2 -3 -4 -3 -1 -1 10 -5 -3 13
2 4 1 7 3 3 2 -1 2 -3 -2 1 -4 -2 1 1 -5 5 -3 -4 -2 -12
-1 -5 -5 -2 -2 -2 1 -1 -4 -6 1 -5 -4 3 1 -3 -0 -2 -1 4 4 6
-1 -1 0 -2 -5 -5 -3 -6 -9 -7 4 10 7 -3 -1 1 5 -2 1 -2 0 -7
6 4 3 3 4 5 4 4 5 4 -1 -3 -3 -3 3 1 1 0 2 4 4 -2
0 2 5 6 6 5 5 4 3 3 1 1 1 -2 1 1 4 1 1 -1 1 1
-3 -2 -2 -4 -4 -2 -2 -3 -4 -4 -2 -3 -3 -3 -1 -0 2 1 0 0 -1 -1
-1 -2 -2 -1 1 2 2 1 0 0 1 1 -1 -1 -1 -1 -0 1 0 1 2 3
-1 -3 -2 -1 -2 -2 -2 -2 -0 0 -0 -1 -3 -1 -1 2 2 2 -0 -1 -1 -1
-2 -1 -1 -2 -1 -3 -1 -2 -2 -1 0 1 1 2 3 5 2 -2 -3 -3 -2 -2
1 1 1 2 1 0 0 1 -1 0 -2 -1 -0 -1 -2 -4 -3 -2 -2 3 1 0
-1 -0 -1 -1 -2 -2 -0 0 -1 -0 -1 -3 -4 -3 -4 -4 -6 -5 -4 -3 -2 0
Height
3019 3017 3019 3022 3026 3026 3020 3020 3023 3032 3037 3039 3040 3042 3043 3045 3046 3046 3047 3047 3048 3048
3022 3021 3021 3022 3025 3023 3021 3024 3026 3029 3032 3032 3033 3034 3034 3035 3036 3036 3037 3037 3038 3038
3023 3022 3022 3023 3023 3022 3021 3021 3022 3023 3024 3024 3026 3025 3026 3026 3028 3027 3028 3027 3029 3029
3022 3021 3021 3020 3020 3019 3019 3018 3017 3017 3018 3018 3020 3019 3019 3019 3020 3019 3019 3020 3017 3019
3022 3021 3019 3018 3018 3017 3015 3014 3014 3013 3014 3014 3013 3011 3010 3011 3010 3009 3009 3009 3006 3005
3023 3021 3019 3017 3015 3013 3012 3011 3010 3009 3008 3007 3005 3003 3004 3002 3001 3001 2999 2999 2997 2993
3020 3018 3017 3015 3012 3010 3007 3006 3004 3002 3001 2999 2998 2997 2996 2995 2994 2992 2990 2988 2986 2985
3015 3012 3010 3007 3005 3003 3001 2999 2998 2996 2994 2992 2990 2988 2987 2985 2983 2982 2980 2979 2976 2975
3012 3009 3007 3004 3002 2999 2996 2994 2992 2990 2987 2985 2983 2980 2978 2977 2975 2972 2969 2968 2967 2965
3010 3007 3004 3001 2997 2994 2991 2989 2986 2983 2981 2978 2975 2972 2969 2966 2964 2961 2959 2957 2954 2952
3006 3003 3000 2996 2993 2989 2985 2982 2979 2976 2973 2970 2966 2963 2960 2957 2953 2951 2948 2945 2943 2941
3000 2996 2993 2989 2986 2983 2980 2976 2973 2970 2966 2962 2958 2954 2950 2947 2944 2941 2939 2935 2931 2927
2993 2990 2986 2982 2979 2975 2972 2968 2964 2960 2956 2951 2948 2942 2938 2933 2929 2926 2922 2922 2919 2916
2986 2983 2979 2975 2971 2967 2964 2960 2956 2951 2946 2942 2938 2935 2931 2927 2923 2920 2917 2914 2912 2908